GW3556 Weather Reports


Display with metric or nautical units.
time (UTC)temp
F
wind
direction
speed
MPH
gust
MPH
rain 1hr
in
rain 24hr
in
rain mn
in
humidity
%
barometer
mb
20260506155017 56 322 4.0 8.0 0.00 0.00 0.00 45 1017.8
20260506154613 56 327 5.0 8.0 0.00 0.00 0.00 46 1017.8
20260506154017 55 360 3.0 9.0 0.00 0.00 0.00 46 1017.8
20260506153520 55 318 5.0 9.0 0.00 0.00 0.00 46 1017.8
20260506153054 55 341 5.0 11.0 0.00 0.00 0.00 46 1017.9
20260506152519 55 328 5.0 11.0 0.00 0.00 0.00 46 1017.8
20260506152019 55 315 4.0 6.0 0.00 0.00 0.00 46 1017.9
20260506151555 55 315 3.0 6.0 0.00 0.00 0.00 46 1017.8
20260506151020 54 344 3.0 9.0 0.00 0.00 0.00 47 1017.8
20260506150522 54 352 5.0 10.0 0.00 0.00 0.00 48 1017.8
20260506150146 54 339 5.0 10.0 0.00 0.00 0.00 47 1017.8
20260506145531 53 321 5.0 10.0 0.00 0.00 0.00 48 1017.8
20260506145025 53 333 5.0 9.0 0.00 0.00 0.00 48 1017.8
20260506144833 53 346 5.0 9.0 0.00 0.00 0.00 48 1017.8
20260506144018 53 5 6.0 9.0 0.00 0.00 0.00 48 1017.8
20260506143524 53 326 5.0 9.0 0.00 0.00 0.00 48 1017.8
20260506143055 53 330 4.0 8.0 0.00 0.00 0.00 48 1017.8
20260506142522 53 315 3.0 8.0 0.00 0.00 0.00 48 1017.8
20260506142023 53 335 4.0 10.0 0.00 0.00 0.00 48 1017.8
20260506141610 52 323 5.0 10.0 0.00 0.00 0.00 48 1017.9
20260506141024 53 319 4.0 8.0 0.00 0.00 0.00 48 1017.8
20260506140517 53 309 4.0 8.0 0.00 0.00 0.00 47 1017.8
20260506140332 53 334 3.0 6.0 0.00 0.00 0.00 47 1017.8
20260506135515 53 342 4.0 8.0 0.00 0.00 0.00 47 1017.8
20260506135016 53 317 4.0 8.0 0.00 0.00 0.00 47 1017.6
20260506134553 52 323 4.0 8.0 0.00 0.00 0.00 48 1017.7
20260506134015 52 336 5.0 8.0 0.00 0.00 0.00 48 1017.6
20260506133709 52 340 4.0 6.0 0.00 0.00 0.00 48 1017.6
20260506133704 52 337 4.0 6.0 0.00 0.00 0.00 48 1017.6
20260506132514 52 352 4.0 8.0 0.00 0.00 0.00 47 1017.5
20260506132015 52 360 3.0 8.0 0.00 0.00 0.00 48 1017.6
20260506131546 51 316 3.0 6.0 0.00 0.00 0.00 48 1017.5
20260506131013 51 336 4.0 6.0 0.00 0.00 0.00 48 1017.6
20260506130514 51 325 4.0 8.0 0.00 0.00 0.00 49 1017.5
20260506130103 51 313 6.0 8.0 0.00 0.00 0.00 49 1017.7
20260506125517 51 298 5.0 8.0 0.00 0.00 0.00 49 1017.6
20260506125015 51 304 4.0 7.0 0.00 0.00 0.00 48 1017.6
20260506124542 52 306 3.0 6.0 0.00 0.00 0.00 47 1017.5
20260506124016 52 313 3.0 6.0 0.00 0.00 0.00 46 1017.4
20260506123516 52 323 4.0 6.0 0.00 0.00 0.00 46 1017.6
20260506123047 52 321 2.0 4.0 0.00 0.00 0.00 46 1017.5
20260506122517 52 321 2.0 4.0 0.00 0.00 0.00 46 1017.5
20260506122015 52 321 2.0 4.0 0.00 0.00 0.00 46 1017.4
20260506121552 52 315 2.0 4.0 0.00 0.00 0.00 46 1017.5
20260506121016 52 315 2.0 4.0 0.00 0.00 0.00 46 1017.5
20260506120520 52 315 2.0 3.0 0.00 0.00 0.00 47 1017.5
20260506120057 52 315 1.0 3.0 0.00 0.00 0.00 47 1017.5
20260506115517 52 315 1.0 3.0 0.00 0.00 0.00 47 1017.5
20260506115026 52 315 1.0 3.0 0.00 0.00 0.00 47 1017.5
20260506114541 52 315 2.0 3.0 0.00 0.00 0.00 46 1017.4
20260506114019 53 315 1.0 2.0 0.00 0.00 0.00 46 1017.4
20260506113515 53 315 0.0 4.0 0.00 0.00 0.00 46 1017.4
20260506113052 53 315 2.0 4.0 0.00 0.00 0.00 46 1017.4
20260506112518 53 342 2.0 3.0 0.00 0.00 0.00 46 1017.4
20260506112013 53 342 1.0 3.0 0.00 0.00 0.00 45 1017.4
20260506111548 53 342 1.0 4.0 0.00 0.00 0.00 45 1017.4
20260506111016 53 342 1.0 4.0 0.00 0.00 0.00 46 1017.4
20260506110518 53 343 2.0 5.0 0.00 0.00 0.00 46 1017.3
20260506110047 53 342 2.0 5.0 0.00 0.00 0.00 46 1017.4
20260506105518 53 326 2.0 5.0 0.00 0.00 0.00 46 1017.4
20260506105023 53 323 3.0 5.0 0.00 0.00 0.00 46 1017.3
20260506104605 53 325 2.0 5.0 0.00 0.00 0.00 45 1017.4
20260506104129 53 337 3.0 5.0 0.00 0.00 0.00 45 1017.4
20260506103514 53 327 3.0 5.0 0.00 0.00 0.00 45 1017.4
20260506103041 53 327 2.0 5.0 0.00 0.00 0.00 45 1017.4
20260506102521 53 340 3.0 5.0 0.00 0.00 0.00 45 1017.4
20260506102016 53 327 3.0 8.0 0.00 0.00 0.00 45 1017.4
20260506101557 53 326 3.0 8.0 0.00 0.00 0.00 45 1017.4
20260506101016 53 333 4.0 6.0 0.00 0.00 0.00 45 1017.4
20260506100528 53 333 3.0 8.0 0.00 0.00 0.00 45 1017.4
20260506100106 53 327 3.0 8.0 0.00 0.00 0.00 45 1017.4
20260506095515 53 342 3.0 5.0 0.00 0.00 0.00 45 1017.5
20260506095013 53 331 3.0 5.0 0.00 0.00 0.00 45 1017.4
20260506094552 53 331 3.0 5.0 0.00 0.00 0.00 45 1017.4
20260506094013 54 342 2.0 4.0 0.00 0.00 0.00 45 1017.4
20260506093516 54 338 2.0 5.0 0.00 0.00 0.00 45 1017.5
20260506093048 54 340 3.0 5.0 0.00 0.00 0.00 45 1017.6
20260506092514 54 343 3.0 5.0 0.00 0.00 0.00 45 1017.6
20260506092015 54 340 3.0 5.0 0.00 0.00 0.00 45 1017.6
20260506091548 54 349 3.0 5.0 0.00 0.00 0.00 45 1017.6
20260506091017 54 336 2.0 6.0 0.00 0.00 0.00 45 1017.6
20260506090519 54 317 3.0 6.0 0.00 0.00 0.00 45 1017.6
20260506090051 54 332 3.0 6.0 0.00 0.00 0.00 45 1017.6
20260506085513 54 329 3.0 8.0 0.00 0.00 0.00 45 1017.6
20260506085016 54 315 4.0 8.0 0.00 0.00 0.00 45 1017.8
20260506084555 54 315 5.0 8.0 0.00 0.00 0.00 45 1017.6
20260506084011 54 327 5.0 8.0 0.00 0.00 0.00 45 1017.6
20260506083549 54 321 4.0 8.0 0.00 0.00 0.00 45 1017.6
20260506083531 54 322 4.0 9.0 0.00 0.00 0.00 45 1017.7
20260506082516 54 329 5.0 9.0 0.00 0.00 0.00 46 1017.6
20260506082026 54 321 4.0 9.0 0.00 0.00 0.00 46 1017.6
20260506081603 54 333 4.0 9.0 0.00 0.00 0.00 46 1017.6
20260506081018 54 325 5.0 8.0 0.00 0.00 0.00 46 1017.6
20260506080515 54 333 4.0 6.0 0.00 0.00 0.00 46 1017.6
20260506080321 54 341 3.0 9.0 0.00 0.00 0.00 46 1017.6
20260506073522 54 331 6.0 11.0 0.00 0.00 0.00 47 1017.6
20260506073323 54 321 7.0 10.0 0.00 0.00 0.00 47 1017.6
20260506072516 54 317 7.0 11.0 0.00 0.00 0.00 47 1017.5
20260506072354 54 311 6.0 8.0 0.00 0.00 0.00 48 1017.6
20260506071822 54 319 6.0 9.0 0.00 0.00 0.00 47 1017.6
20260506071016 54 308 5.0 9.0 0.00 0.00 0.00 47 1017.6
20260506070519 54 312 5.0 9.0 0.00 0.00 0.00 47 1017.6
20260506062516 55 319 6.0 10.0 0.00 0.00 0.00 46 1017.4
20260506062018 55 320 6.0 10.0 0.00 0.00 0.00 46 1017.4
20260506061611 55 323 5.0 9.0 0.00 0.00 0.00 47 1017.4
20260506061018 55 329 6.0 11.0 0.00 0.00 0.00 47 1017.3
20260506060516 55 304 7.0 11.0 0.00 0.00 0.00 47 1017.3
20260506060129 55 327 5.0 9.0 0.00 0.00 0.00 47 1017.5
20260506051018 56 312 5.0 12.0 0.00 0.00 0.00 46 1017.3
20260506050528 57 314 8.0 13.0 0.00 0.00 0.00 45 1017.3
20260506050521 57 307 10.0 13.0 0.00 0.00 0.00 45 1017.2
20260506045016 57 315 8.0 12.0 0.00 0.00 0.00 45 1017.3
20260506044557 57 325 8.0 12.0 0.00 0.00 0.00 45 1017.2
20260506044017 57 304 8.0 12.0 0.00 0.00 0.00 45 1017.2
20260506043519 57 309 9.0 13.0 0.00 0.00 0.00 45 1017.2
20260506043111 58 307 8.0 14.0 0.00 0.00 0.00 45 1017.1
20260506042518 57 286 7.0 14.0 0.00 0.00 0.00 45 1017.2
20260506042021 57 307 9.0 13.0 0.00 0.00 0.00 44 1017.0
20260506041609 57 284 8.0 12.0 0.00 0.00 0.00 45 1016.9
20260506041021 57 300 9.0 13.0 0.00 0.00 0.00 45 1017.0
20260506040518 58 302 8.0 10.0 0.00 0.00 0.00 45 1017.0
20260506040110 58 288 8.0 12.0 0.00 0.00 0.00 44 1017.0
20260506035518 58 345 7.0 12.0 0.00 0.00 0.00 44 1016.9
20260506035017 58 283 5.0 9.0 0.00 0.00 0.00 47 1016.9
20260506034618 58 280 5.0 8.0 0.00 0.00 0.00 47 1016.8
20260506034021 58 272 5.0 8.0 0.00 0.00 0.00 47 1016.8
20260506033517 58 277 5.0 7.0 0.00 0.00 0.00 47 1016.8
20260506033056 58 271 4.0 9.0 0.00 0.00 0.00 47 1016.7
20260506032516 58 261 3.0 10.0 0.00 0.00 0.00 46 1016.4
20260506032017 59 237 3.0 10.0 0.00 0.00 0.00 46 1016.3
20260506031548 60 267 2.0 8.0 0.00 0.00 0.00 45 1016.3
20260506031016 61 209 2.0 9.0 0.00 0.00 0.00 43 1016.2
20260506030512 61 201 2.0 9.0 0.00 0.00 0.00 42 1016.3
20260506030040 62 258 2.0 8.0 0.00 0.00 0.00 41 1016.3
20260506025515 62 167 3.0 7.0 0.00 0.00 0.00 40 1016.3
20260506025015 63 211 1.0 6.0 0.00 0.00 0.00 39 1016.2
20260506024548 64 224 3.0 6.0 0.00 0.00 0.00 38 1016.0
20260506024015 64 144 1.0 6.0 0.00 0.00 0.00 37 1016.1
20260506023516 65 200 2.0 8.0 0.00 0.00 0.00 36 1016.2
20260506023038 65 232 3.0 8.0 0.00 0.00 0.00 36 1016.1
20260506022516 65 75 1.0 9.0 0.00 0.00 0.00 33 1016.1
20260506022016 66 232 1.0 14.0 0.00 0.00 0.00 33 1016.2
20260506021544 66 273 10.0 13.0 0.00 0.00 0.00 31 1016.0
20260506021016 66 303 5.0 10.0 0.00 0.00 0.00 31 1016.1
20260506020518 66 331 4.0 8.0 0.00 0.00 0.00 31 1016.1
20260506020044 65 169 1.0 15.0 0.00 0.00 0.00 31 1016.1
20260506015514 65 325 7.0 15.0 0.00 0.00 0.00 30 1016.2
20260506015016 66 290 8.0 14.0 0.00 0.00 0.00 30 1016.2
20260506014541 66 265 5.0 12.0 0.00 0.00 0.00 31 1016.2
20260506014013 66 166 2.0 7.0 0.00 0.00 0.00 31 1016.2
20260506013517 67 270 3.0 9.0 0.00 0.00 0.00 31 1016.3
20260506013042 68 335 6.0 10.0 0.00 0.00 0.00 29 1016.3
20260506012527 69 262 3.0 12.0 0.00 0.00 0.00 30 1016.3
20260506012013 68 236 4.0 14.0 0.00 0.00 0.00 31 1016.3
20260506011547 66 282 8.0 14.0 0.00 0.00 0.00 31 1016.1
20260506011027 66 285 8.0 12.0 0.00 0.00 0.00 32 1016.2
20260506010524 65 272 6.0 10.0 0.00 0.00 0.00 32 1016.3
20260506010120 66 289 5.0 10.0 0.00 0.00 0.00 30 1016.3
20260506005527 68 332 6.0 10.0 0.00 0.00 0.00 29 1016.5
20260506005015 69 281 6.0 9.0 0.00 0.00 0.00 28 1016.1
20260506004545 70 246 1.0 8.0 0.00 0.00 0.00 30 1016.2
20260506004025 69 266 3.0 10.0 0.00 0.00 0.00 32 1016.3
20260506003515 67 266 2.0 11.0 0.00 0.00 0.00 30 1016.5
20260506003044 68 295 7.0 11.0 0.00 0.00 0.00 29 1016.4
20260506002518 69 296 6.0 11.0 0.00 0.00 0.00 29 1016.4
20260506002016 69 291 5.0 10.0 0.00 0.00 0.00 32 1016.4
20260506001600 67 279 4.0 10.0 0.00 0.00 0.00 31 1016.3
20260506001018 67 320 5.0 9.0 0.00 0.00 0.00 31 1016.5
20260506000518 66 313 3.0 11.0 0.00 0.00 0.00 32 1016.5
20260506000043 65 250 2.0 12.0 0.00 0.00 0.00 30 1016.5
20260505235517 66 336 6.0 10.0 0.00 0.00 0.00 31 1016.6
20260505235015 65 300 2.0 12.0 0.00 0.00 0.00 31 1016.7
20260505234542 66 286 6.0 12.0 0.00 0.00 0.00 30 1016.6
20260505234016 65 289 4.0 7.0 0.00 0.00 0.00 31 1016.7
20260505233515 64 304 3.0 9.0 0.00 0.00 0.00 31 1016.7
20260505233047 64 289 4.0 11.0 0.00 0.00 0.00 30 1016.8
20260505232519 66 299 8.0 11.0 0.00 0.00 0.00 30 1016.6
20260505232013 67 313 6.0 12.0 0.00 0.00 0.00 29 1016.8
20260505231549 67 303 5.0 13.0 0.00 0.00 0.00 30 1016.7
20260505231015 67 309 7.0 14.0 0.00 0.00 0.00 28 1016.7
20260505230517 66 307 8.0 16.0 0.00 0.00 0.00 28 1016.7
20260505230052 67 288 6.0 16.0 0.00 0.00 0.00 27 1017.0
20260505225516 68 313 7.0 11.0 0.00 0.00 0.00 29 1016.9
20260505225016 67 319 7.0 12.0 0.00 0.00 0.00 29 1016.8
20260505224544 67 316 9.0 15.0 0.00 0.00 0.00 29 1016.9
20260505224015 67 348 9.0 15.0 0.00 0.00 0.00 28 1017.0
20260505223515 67 319 7.0 15.0 0.00 0.00 0.00 28 1017.1
20260505223045 67 311 9.0 14.0 0.00 0.00 0.00 28 1017.2
20260505222515 67 329 9.0 18.0 0.00 0.00 0.00 28 1017.1
20260505222017 66 298 7.0 18.0 0.00 0.00 0.00 29 1017.2
20260505221540 66 302 9.0 14.0 0.00 0.00 0.00 29 1017.2
20260505221017 66 360 7.0 13.0 0.00 0.00 0.00 27 1017.2
20260505220516 66 326 8.0 16.0 0.00 0.00 0.00 28 1017.1
20260505220053 66 304 9.0 16.0 0.00 0.00 0.00 28 1017.3
20260505215518 66 313 8.0 16.0 0.00 0.00 0.00 28 1017.3
20260505215016 65 295 7.0 15.0 0.00 0.00 0.00 28 1017.3
20260505214549 64 345 8.0 17.0 0.00 0.00 0.00 29 1017.4
20260505214014 66 293 12.0 17.0 0.00 0.00 0.00 27 1017.3
20260505213516 64 315 5.0 24.0 0.00 0.00 0.00 29 1017.2
20260505213116 65 275 12.0 18.0 0.00 0.00 0.00 28 1017.2
20260505212516 65 319 11.0 18.0 0.00 0.00 0.00 29 1017.2
20260505212015 64 275 12.0 17.0 0.00 0.00 0.00 30 1017.3
20260505211554 65 292 11.0 16.0 0.00 0.00 0.00 29 1017.4
20260505211021 64 294 11.0 18.0 0.00 0.00 0.00 31 1017.4
20260505210516 64 280 8.0 18.0 0.00 0.00 0.00 31 1017.5
20260505210054 65 283 11.0 16.0 0.00 0.00 0.00 30 1017.5
20260505205517 65 263 11.0 15.0 0.00 0.00 0.00 31 1017.6
20260505205020 64 276 7.0 15.0 0.00 0.00 0.00 31 1017.6
20260505204547 64 289 6.0 14.0 0.00 0.00 0.00 30 1017.6
20260505204018 64 262 10.0 15.0 0.00 0.00 0.00 30 1017.4
20260505203516 63 294 7.0 16.0 0.00 0.00 0.00 32 1017.6
20260505203053 63 285 11.0 16.0 0.00 0.00 0.00 32 1017.4
20260505202521 63 294 5.0 12.0 0.00 0.00 0.00 32 1017.5
20260505202026 63 310 7.0 16.0 0.00 0.00 0.00 32 1017.5
20260505201552 63 288 11.0 16.0 0.00 0.00 0.00 32 1017.5
20260505201016 63 325 6.0 15.0 0.00 0.00 0.00 32 1017.5
20260505200517 63 280 7.0 14.0 0.00 0.00 0.00 32 1017.6
20260505195516 63 292 7.0 11.0 0.00 0.00 0.00 34 1017.6
20260505195016 63 320 4.0 12.0 0.00 0.00 0.00 33 1017.8
20260505194610 63 319 6.0 12.0 0.00 0.00 0.00 34 1017.8
20260505194022 62 295 5.0 13.0 0.00 0.00 0.00 33 1017.6
20260505193520 62 269 4.0 13.0 0.00 0.00 0.00 34 1017.7
20260505193110 62 304 4.0 9.0 0.00 0.00 0.00 36 1017.6
20260505192518 62 279 1.0 12.0 0.00 0.00 0.00 32 1017.7
20260505192017 63 292 6.0 10.0 0.00 0.00 0.00 33 1017.8
20260505191609 63 337 5.0 10.0 0.00 0.00 0.00 34 1017.7
20260505191020 63 313 4.0 9.0 0.00 0.00 0.00 34 1017.6
20260505190519 63 294 6.0 10.0 0.00 0.00 0.00 34 1017.9
20260505190107 62 312 5.0 10.0 0.00 0.00 0.00 35 1018.0
20260505185517 61 294 3.0 12.0 0.00 0.00 0.00 35 1017.9
20260505185017 61 306 5.0 12.0 0.00 0.00 0.00 37 1017.8
20260505184550 60 304 3.0 14.0 0.00 0.00 0.00 36 1017.9
20260505184024 61 310 7.0 14.0 0.00 0.00 0.00 35 1017.9
20260505183657 60 306 4.0 13.0 0.00 0.00 0.00 38 1017.9
20260505183145 60 311 7.0 13.0 0.00 0.00 0.00 37 1017.8
20260505182520 60 258 5.0 13.0 0.00 0.00 0.00 37 1017.7
20260505182022 61 281 5.0 13.0 0.00 0.00 0.00 37 1017.7
20260505181620 61 315 3.0 6.0 0.00 0.00 0.00 38 1017.8
20260505181019 61 12 4.0 9.0 0.00 0.00 0.00 36 1017.7
20260505180514 61 319 4.0 9.0 0.00 0.00 0.00 39 1017.7
20260505180512 60 298 4.0 10.0 0.00 0.00 0.00 38 1017.6
20260505175517 60 288 6.0 10.0 0.00 0.00 0.00 37 1017.6
20260505175028 60 329 6.0 9.0 0.00 0.00 0.00 38 1017.7
20260505174546 59 310 5.0 15.0 0.00 0.00 0.00 39 1017.7
20260505174026 59 296 5.0 12.0 0.00 0.00 0.00 39 1017.6
20260505173512 59 332 6.0 12.0 0.00 0.00 0.00 38 1017.7
20260505173509 59 304 3.0 12.0 0.00 0.00 0.00 40 1017.7
20260505172516 58 313 6.0 12.0 0.00 0.00 0.00 40 1017.7
20260505172022 58 295 8.0 11.0 0.00 0.00 0.00 39 1017.6
20260505171619 58 298 4.0 9.0 0.00 0.00 0.00 40 1017.7
20260505171019 58 304 3.0 8.0 0.00 0.00 0.00 40 1017.6
20260505170514 58 304 2.0 8.0 0.00 0.00 0.00 41 1017.6
20260505170041 58 303 4.0 9.0 0.00 0.00 0.00 42 1017.8
20260505165516 58 323 3.0 9.0 0.00 0.00 0.00 42 1017.8
20260505165015 57 263 6.0 9.0 0.00 0.00 0.00 40 1017.7
20260505164540 57 328 3.0 6.0 0.00 0.00 0.00 43 1017.6
20260505164015 57 335 1.0 6.0 0.00 0.00 0.00 44 1017.5
20260505163513 57 302 2.0 6.0 0.00 0.00 0.00 42 1017.6
20260505163049 57 306 2.0 7.0 0.00 0.00 0.00 42 1017.5
20260505162517 56 286 2.0 9.0 0.00 0.00 0.00 43 1017.4
20260505162027 56 287 4.0 10.0 0.00 0.00 0.00 42 1017.4
20260505161553 56 248 4.0 10.0 0.00 0.00 0.00 42 1017.5
20260505161017 56 304 3.0 7.0 0.00 0.00 0.00 42 1017.5
20260505160517 56 282 2.0 6.0 0.00 0.00 0.00 43 1017.7